When you browse on this site, cookies collect data to enhance your experience and personalize the content and advertising you see.
Visit our Privacy Policy to learn more. By continuing to use the site, you agree to this use of cookies and data.

Hourly Weather Chyappara

Today, 2 July, Thursday

Time Temperature Precipitation Wind Pressure Humidity
00:00 +16°C° 0.7 mm 2 mps 738 mmHg 94%
01:00 +16°C° 0.5 mm 3 mps 738 mmHg 94%
02:00 +14°C° 0.5 mm 3 mps 737 mmHg 94%
03:00 +15°C° 0 mm 2 mps 737 mmHg 93%
04:00 +15°C° 0.3 mm 2 mps 737 mmHg 91%
05:00 +16°C° 0.3 mm 3 mps 736 mmHg 89%
06:00 +16°C° 0.3 mm 3 mps 736 mmHg 87%
07:00 +19°C° 0 mm 3 mps 736 mmHg 76%
08:00 +23°C° 0 mm 2 mps 735 mmHg 65%
09:00 +24°C° 0 mm 1 mps 735 mmHg 59%
10:00 +26°C° 0 mm 2 mps 735 mmHg 52%
11:00 +28°C° 0 mm 2 mps 734 mmHg 44%
12:00 +30°C° 0 mm 2 mps 734 mmHg 37%
13:00 +30°C° 0 mm 3 mps 733 mmHg 36%
14:00 +30°C° 0 mm 3 mps 732 mmHg 36%
15:00 +30°C° 0 mm 3 mps 733 mmHg 38%
16:00 +29°C° 0 mm 3 mps 732 mmHg 42%
17:00 +28°C° 0 mm 3 mps 732 mmHg 46%
18:00 +27°C° 0 mm 3 mps 732 mmHg 50%
19:00 +26°C° 0.1 mm 3 mps 732 mmHg 52%
20:00 +24°C° 0.1 mm 3 mps 731 mmHg 54%
21:00 +23°C° 0 mm 2 mps 731 mmHg 62%
22:00 +20°C° 0 mm 2 mps 731 mmHg 61%
23:00 +19°C° 0 mm 2 mps 731 mmHg 60%

Tomorrow, 3 July, Friday

Time Temperature Precipitation Wind Pressure Humidity
00:00 +18°C° 0 mm 3 mps 731 mmHg 58%
01:00 +17°C° 0 mm 3 mps 730 mmHg 57%
02:00 +17°C° 0 mm 3 mps 730 mmHg 56%
03:00 +16°C° 0 mm 3 mps 730 mmHg 55%
04:00 +17°C° 0 mm 3 mps 730 mmHg 53%
05:00 +18°C° 0 mm 4 mps 729 mmHg 51%
06:00 +19°C° 0 mm 4 mps 729 mmHg 50%
07:00 +20°C° 0 mm 5 mps 729 mmHg 48%
08:00 +21°C° 0 mm 5 mps 729 mmHg 46%
09:00 +22°C° 0 mm 6 mps 729 mmHg 44%
10:00 +22°C° 0.2 mm 6 mps 728 mmHg 48%
11:00 +22°C° 0.2 mm 5 mps 728 mmHg 51%
12:00 +22°C° 0.2 mm 5 mps 727 mmHg 55%
13:00 +21°C° 0.5 mm 5 mps 727 mmHg 57%
14:00 +21°C° 0.5 mm 5 mps 727 mmHg 59%
15:00 +21°C° 0.5 mm 5 mps 727 mmHg 61%
16:00 +20°C° 0.7 mm 4 mps 727 mmHg 66%
17:00 +20°C° 0.7 mm 3 mps 727 mmHg 71%
18:00 +19°C° 0.7 mm 3 mps 727 mmHg 76%
19:00 +18°C° 0.4 mm 3 mps 727 mmHg 78%
20:00 +17°C° 0.4 mm 3 mps 727 mmHg 80%
21:00 +16°C° 0.4 mm 3 mps 727 mmHg 82%
22:00 +14°C° 0 mm 3 mps 727 mmHg 81%
23:00 +14°C° 0 mm 3 mps 727 mmHg 80%

Day after tomorrow, 4 July, Saturday

Time Temperature Precipitation Wind Pressure Humidity
00:00 +13°C° 0 mm 3 mps 727 mmHg 80%
01:00 +13°C° 0 mm 3 mps 727 mmHg 78%
02:00 +12°C° 0 mm 3 mps 727 mmHg 77%
03:00 +12°C° 0 mm 3 mps 727 mmHg 75%
04:00 +13°C° 0 mm 3 mps 727 mmHg 75%
05:00 +13°C° 0 mm 3 mps 727 mmHg 74%
06:00 +14°C° 0 mm 3 mps 727 mmHg 73%
07:00 +16°C° 0 mm 3 mps 727 mmHg 70%
08:00 +17°C° 0 mm 3 mps 727 mmHg 67%
09:00 +17°C° 0 mm 3 mps 727 mmHg 64%
10:00 +19°C° 0.2 mm 2 mps 727 mmHg 61%
11:00 +20°C° 0.2 mm 2 mps 727 mmHg 57%
12:00 +21°C° 0.2 mm 2 mps 727 mmHg 54%
13:00 +21°C° 1.1 mm 2 mps 727 mmHg 60%
14:00 +20°C° 1.1 mm 2 mps 727 mmHg 65%
15:00 +20°C° 1.1 mm 2 mps 727 mmHg 71%
16:00 +20°C° 0.5 mm 2 mps 727 mmHg 69%
17:00 +20°C° 0.5 mm 2 mps 727 mmHg 66%
18:00 +20°C° 0.5 mm 3 mps 727 mmHg 64%
19:00 +18°C° 0.2 mm 2 mps 727 mmHg 69%
20:00 +17°C° 0.2 mm 2 mps 727 mmHg 75%
21:00 +15°C° 0.2 mm 2 mps 728 mmHg 81%
22:00 +14°C° 0 mm 2 mps 728 mmHg 83%
23:00 +13°C° 0 mm 2 mps 728 mmHg 85%

5 July, Sunday

Time Temperature Precipitation Wind Pressure Humidity
00:00 +12°C° 0 mm 2 mps 728 mmHg 87%
01:00 +12°C° 0 mm 2 mps 728 mmHg 86%
02:00 +12°C° 0 mm 1 mps 728 mmHg 85%
03:00 +11°C° 0 mm 1 mps 728 mmHg 83%
04:00 +12°C° 0 mm 1 mps 728 mmHg 80%
05:00 +13°C° 0 mm 1 mps 728 mmHg 76%
06:00 +13°C° 0 mm 2 mps 729 mmHg 72%
07:00 +15°C° 0 mm 1 mps 729 mmHg 64%
08:00 +18°C° 0 mm 1 mps 729 mmHg 56%
09:00 +19°C° 0 mm 1 mps 729 mmHg 48%
10:00 +19°C° 0 mm 2 mps 729 mmHg 46%
11:00 +20°C° 0 mm 2 mps 729 mmHg 44%
12:00 +20°C° 0 mm 3 mps 729 mmHg 42%
13:00 +21°C° 0 mm 2 mps 729 mmHg 41%
14:00 +21°C° 0 mm 2 mps 729 mmHg 41%
15:00 +21°C° 0 mm 2 mps 729 mmHg 41%
16:00 +20°C° 0 mm 2 mps 730 mmHg 45%
17:00 +21°C° 0 mm 1 mps 730 mmHg 49%
18:00 +20°C° 0 mm 1 mps 730 mmHg 54%
19:00 +18°C° 0.1 mm 1 mps 730 mmHg 59%
20:00 +16°C° 0.1 mm 1 mps 730 mmHg 65%
21:00 +15°C° 0.1 mm 1 mps 730 mmHg 70%
22:00 +14°C° 0.6 mm 2 mps 731 mmHg 77%
23:00 +13°C° 0.6 mm 2 mps 731 mmHg 85%

6 July, Monday

Time Temperature Precipitation Wind Pressure Humidity
00:00 +12°C° 0.6 mm 3 mps 731 mmHg 92%
01:00 +12°C° 1.1 mm 2 mps 731 mmHg 93%
02:00 +12°C° 1.1 mm 2 mps 731 mmHg 94%
03:00 +10°C° 1.1 mm 2 mps 731 mmHg 95%
04:00 +11°C° 1.4 mm 1 mps 732 mmHg 96%
05:00 +12°C° 1.4 mm 1 mps 732 mmHg 96%
06:00 +11°C° 1.4 mm 0 mps 732 mmHg 97%
07:00 +11°C° 0.7 mm 0 mps 732 mmHg 94%
08:00 +13°C° 0.7 mm 1 mps 732 mmHg 91%
09:00 +13°C° 0.7 mm 1 mps 732 mmHg 89%
10:00 +15°C° 0.3 mm 1 mps 733 mmHg 83%
11:00 +16°C° 0.3 mm 1 mps 733 mmHg 77%
12:00 +17°C° 0.3 mm 2 mps 733 mmHg 71%
13:00 +17°C° 0.6 mm 2 mps 733 mmHg 72%
14:00 +17°C° 0.6 mm 2 mps 733 mmHg 73%
15:00 +17°C° 0.6 mm 2 mps 733 mmHg 74%
16:00 +17°C° 0.2 mm 2 mps 733 mmHg 72%
17:00 +17°C° 0.2 mm 2 mps 733 mmHg 70%
18:00 +18°C° 0.2 mm 1 mps 734 mmHg 68%
19:00 +15°C° 0 mm 1 mps 734 mmHg 74%
20:00 +14°C° 0 mm 1 mps 734 mmHg 79%
21:00 +12°C° 0 mm 0 mps 734 mmHg 84%
22:00 +11°C° 0 mm 0 mps 734 mmHg 86%
23:00 +10°C° 0 mm 0 mps 735 mmHg 88%

7 July, Tuesday

Time Temperature Precipitation Wind Pressure Humidity
00:00 +9°C° 0 mm 0 mps 735 mmHg 91%
01:00 +8°C° 0 mm 0 mps 735 mmHg 91%
02:00 +8°C° 0 mm 0 mps 735 mmHg 92%
03:00 +7°C° 0 mm 0 mps 735 mmHg 92%
04:00 +9°C° 0 mm 0 mps 735 mmHg 87%
05:00 +11°C° 0 mm 0 mps 735 mmHg 81%
06:00 +14°C° 0 mm 1 mps 735 mmHg 76%
07:00 +15°C° 0 mm 1 mps 735 mmHg 67%
08:00 +18°C° 0 mm 1 mps 736 mmHg 57%
09:00 +19°C° 0 mm 2 mps 736 mmHg 48%
10:00 +20°C° 0 mm 2 mps 735 mmHg 44%
11:00 +21°C° 0 mm 2 mps 735 mmHg 40%
12:00 +23°C° 0 mm 2 mps 735 mmHg 36%
13:00 +23°C° 0 mm 2 mps 735 mmHg 35%
14:00 +23°C° 0 mm 1 mps 734 mmHg 35%
15:00 +23°C° 0 mm 1 mps 734 mmHg 35%
16:00 +22°C° 0 mm 1 mps 734 mmHg 40%
17:00 +22°C° 0 mm 1 mps 734 mmHg 44%
18:00 +21°C° 0 mm 1 mps 735 mmHg 49%
19:00 +18°C° 0.1 mm 2 mps 735 mmHg 58%
20:00 +17°C° 0.1 mm 2 mps 734 mmHg 67%
21:00 +15°C° 0.1 mm 2 mps 734 mmHg 77%
22:00 +14°C° 0.1 mm 2 mps 734 mmHg 80%
23:00 +13°C° 0.1 mm 2 mps 734 mmHg 84%
Show more